Regional Weather Roundup
Issued by NWS State College, PA

Home | Current Version | Previous Version | Text Only | Print | Product List | Glossary Off
Versions: 1 2 3 4 5 6 7 8 9 10 11 12 13 14 15 16 17 18 19 20 21 22 23 24 25 26 27 28 29 30 31 32 33 34 35 36 37 38 39 40 41 42 43 44 45 46 47 48 49 50

000
ASUS41 KCTP 262003
RWRCTP

REGIONAL WEATHER ROUNDUP
NATIONAL WEATHER SERVICE STATE COLLEGE PA
400 PM EDT WED JUL 26 2017

Note: "fair" indicates few or no clouds below 12,000 feet with no
significant weather and/or obstructions to visibility.

* = STATION THAT DOES NOT REPORT PRECIPITATION /E.G. RAIN...SNOW...ETC/
    THUNDER OR FOG.

PAZ002>004-007>009-013>016-020>023-029>032-262100-
WESTERN PENNSYLVANIA

CITY           SKY/WX    TMP DP  RH WIND       PRES   REMARKS
ERIE           MOSUNNY   74  62  66 CALM      30.08F
MEADVILLE      PTSUNNY   76  61  59 S8        30.12F
FRANKLIN*      PTSUNNY   75  59  57 S5        30.13F
NEW CASTLE     FAIR      81  61  50 CALM      30.12F
BEAVER COUNTY  SUNNY     79  63  57 CALM      30.12F
BUTLER*        MOSUNNY   79  63  57 SW5       30.11F
PITTSBURGH INT PTSUNNY   79  60  52 S8        30.10F
PITTSBURGH     SUNNY     80  58  46 S8        30.11F
INDIANA*       MOSUNNY   79  64  61 CALM      30.15F
LATROBE        MOSUNNY   81  63  54 SW6       30.12F
WASHINGTON CO* MOSUNNY   79  63  57 CALM      30.11F
$$

PAZ004>006-010>012-017>019-024>028-033>037-041-042-045-046-049>053-262100-
CENTRAL PENNSYLVANIA

CITY           SKY/WX    TMP DP  RH WIND       PRES   REMARKS
BRADFORD       MOSUNNY   75  59  57 S7        30.15F
DUBOIS         MOSUNNY   76  58  53 S5        30.14F
CLEARFIELD     SUNNY     78  60  53 S8        30.15F
JOHNSTOWN      SUNNY     76  60  57 SE8       30.16F
ALTOONA        MOSUNNY   76  62  62 S9        30.17F
STATE COLLEGE  MOSUNNY   75  57  53 S6        30.15F
WILLIAMSPORT   CLOUDY    79  59  50 S7        30.12F
SELINSGROVE    MOSUNNY   80  64  58 VRB6      30.14F
FT INDIANTOWN  PTSUNNY   77  63  63 SE3       30.15F
CAPITAL CITY   MOSUNNY   82  61  48 VRB6      30.14F
HARRISBURG     SUNNY     80  65  59 S3        30.13F
YORK           PTSUNNY   78  63  59 SW6       30.15S
$$

PAZ038>040-043-044-047-048-054-055-060>062-067>071-262100-
EASTERN PENNSYLVANIA

CITY           SKY/WX    TMP DP  RH WIND       PRES   REMARKS
SCRANTON       CLOUDY    74  60  61 W8        30.17F
MOUNT POCONO   MOSUNNY   70  58  65 SW9       30.21F
ALLENTOWN      MOSUNNY   78  61  55 SW6       30.17F
QUAKERTOWN*    PTCLDY    77  63  61 CALM      30.17F
READING        MOSUNNY   78  64  61 CALM      30.15F
LANCASTER      CLOUDY    78  65  63 E5        30.15F
COATESVILLE    PTCLDY    77  64  65 VRB6      30.18F
POTTSTOWN      CLOUDY    76  63  64 VRB3      30.17F
BLUE BELL      MOSUNNY   73  61  64 SE5       30.17F
DOYLESTOWN     MOSUNNY   74  62  66 SE6       30.16F
WILLOW GROVE   NOT AVBL
NORTH PHILA    MOSUNNY   79  61  53 E9        30.18F
PHILADELPHIA   MOSUNNY   81  60  48 SE5       30.15F
$$




USA.gov is the U.S. government's official web portal to all federal, state and local government web resources and services.